Location: Lima
(44.6384°N, 112.5920°W)
Time: 18:00:48
(UTC+00:00)

CAS-6 - Visible Passes

Search period start: 22 April 2024 00:00
Search period end: 02 May 2024 00:00
Orbit: 607 x 629 km, 97.8° (Epoch: 22 April)

Date Brightness Start Highest point End Pass type
(mag) Time Alt. Az. Time Alt. Az. Time Alt. Az.
22 Apr ? 04:58:57 32° NE 04:58:57 32° NE 05:02:20 10° N visible
22 Apr ? 06:36:04 20° WNW 06:36:04 20° WNW 06:38:07 10° NW visible
23 Apr ? 05:15:46 44° NE 05:15:46 44° NE 05:19:14 10° N visible
23 Apr ? 06:52:53 14° WNW 06:52:53 14° WNW 06:54:14 10° NW visible
24 Apr ? 05:32:33 55° N 05:32:33 55° N 05:36:02 10° N visible
25 Apr ? 04:12:14 12° ENE 04:12:55 12° ENE 04:14:44 10° NE visible
25 Apr ? 05:49:21 53° NNW 05:49:21 53° NNW 05:52:44 10° NNW visible
26 Apr ? 04:29:01 18° ENE 04:29:24 18° ENE 04:32:17 10° NNE visible
26 Apr ? 06:06:08 40° WNW 06:06:08 40° WNW 06:09:19 10° NNW visible
27 Apr ? 04:45:48 25° ENE 04:45:55 25° ENE 04:49:27 10° NNE visible
27 Apr ? 06:22:55 29° WNW 06:22:55 29° WNW 06:25:46 10° NNW visible
28 Apr ? 05:02:34 36° ENE 05:02:34 36° ENE 05:06:25 10° N visible
28 Apr ? 06:39:41 20° WNW 06:39:41 20° WNW 06:42:02 10° NW visible
29 Apr ? 05:19:20 52° ENE 05:19:20 52° ENE 05:23:15 10° N visible
29 Apr ? 06:56:27 14° WNW 06:56:27 14° WNW 06:57:58 10° NW visible
30 Apr ? 05:36:05 71° NNE 05:36:05 71° NNE 05:39:59 10° N visible
01 May ? 04:15:44 13° ENE 04:16:47 14° ENE 04:18:54 10° NNE visible
01 May ? 05:52:51 60° WNW 05:52:51 60° WNW 05:56:37 10° NNW visible
